Regional Weather Roundup
Issued by NWS Northern Indiana

Home | Current Version | Previous Version | Text Only | Print | Product List | Glossary Off
Versions: 1 2 3 4 5 6 7 8 9 10 11 12 13 14 15 16 17 18 19 20 21 22 23 24 25 26 27 28 29 30 31 32 33 34 35 36 37 38 39 40 41 42 43 44 45 46 47 48 49 50

000
ASUS43 KIWX 260210
RWRIWX

KIWX WEATHER ROUNDUP
NATIONAL WEATHER SERVICE NORTHERN INDIANA
1000 PM EDT SAT APR 25 2015

NOTE: "FAIR" INDICATES FEW OR NO CLOUDS BELOW 12,000 FEET WITH NO
SIGNIFICANT WEATHER AND/OR OBSTRUCTIONS TO VISIBILITY.

* THESE STATIONS ARE NOT UNDER NWS QUALITY CONTROL. THEY ALSO MAY NOT
  REPORT WEATHER SUCH AS PRECIPITATION OR FOG.

INZ001>027-260300-
NORTHERN INDIANA

CITY           SKY/WX    TMP DP  RH WIND       PRES   REMARKS
GARY*          CLOUDY    43  36  75 NE15      29.83R
VALPARAISO     CLOUDY    44  41  89 NE5       29.81R
MICHIGAN CITY* CLOUDY    41  34  75 N6        29.82R
LAPORTE*       CLOUDY    46  40  77 NE5       29.81S
KNOX*          CLOUDY    43  32  65 E7        29.79S
SOUTH BEND     CLOUDY    47  33  58 CALM      29.82R
GOSHEN         CLOUDY    44  34  67 CALM      29.79S
MONTICELLO*    CLOUDY    44  41  89 NE15      29.75S
LOGANSPORT*    CLOUDY    43  37  81 NE8G17    29.78R
ROCHESTER*     CLOUDY    45  41  87 NE9       29.80R
WARSAW*        CLOUDY    41  34  75 E7        29.80S
ANGOLA*        CLOUDY    43  32  65 CALM      29.79R
FORT WAYNE     LGT RAIN  41  35  79 NE7       29.78R
HUNTINGTON*    DRIZZLE   40  35  84 NE7       29.77S
PERU/GRISSOM   CLOUDY    43  40  88 NE17      29.75R
MARION*        CLOUDY    42  37  81 E17G25    29.75R

$$
INZ028>050-260300-
CENTRAL INDIANA

CITY           SKY/WX    TMP DP  RH WIND       PRES   REMARKS
LAFAYETTE      CLOUDY    44  41  89 NE17G24   29.73R FOG
KOKOMO*        CLOUDY    43  37  81 NE18G25   29.75R
MUNCIE*        CLOUDY    43  39  86 NE18G25   29.72R
INDIANAPOLIS   CLOUDY    46  40  79 NE16G29   29.65R

$$
MIZ043>046-050>051-056>058-064>065-071>073-077>080-260300-
SOUTHWEST LOWER MICHIGAN

CITY           SKY/WX    TMP DP  RH WIND       PRES   REMARKS
BATTLE CREEK   MOCLDY    47  28  47 NE10      29.81R
BENTON HARBOR  CLOUDY    42  34  73 CALM      29.82R
COLDWATER*     CLOUDY    45  33  62 CALM      29.79R
HILLSDALE*     CLOUDY    45  33  62 E3        29.79R
HOLLAND        CLOUDY    50  28  42 NE12      29.84R
GRAND RAPIDS   MOCLDY    46  25  43 NE15      29.85R
KALAMAZOO      CLOUDY    48  30  49 NE6       29.81R
STURGIS*       CLOUDY    43  36  75 CALM      29.79S
THREE RIVERS*  CLOUDY    46  36  69 CALM      29.81R

$$
OHZ001>008-015>018-024>025-260300-
NORTHWEST OHIO

CITY           SKY/WX    TMP DP  RH WIND       PRES   REMARKS
WAUSEON*       CLOUDY    43  28  56 NE10      29.79R
DEFIANCE       CLOUDY    44  30  57 NE3       29.79R
FINDLAY        CLOUDY    41  28  60 NE8       29.75R
TOLEDO EXPRESS CLOUDY    44  26  49 NE13      29.78R
TOLEDO METCALF CLOUDY    44  29  55 NE10      29.79R
LIMA           CLOUDY    40  34  79 N5        29.75R

$$
AND FOR LAKE MICHIGAN COASTAL AND OPEN LAKE BUOY OBSERVATIONS

STATION/POSITION TEMP    WIND        PRES    VSBY  WAVE
                 AIR SEA DIR/SP/G                  HT/PER
                 (F)     (DEG/KT/KT) (MB)    (MI)  (FT/S)
CALUMET HARBOR    41     360/  8/ 15   N/A
MICHIGAN CITY     40     360/ 15/ 17   N/A
BURNS HARBOR      42      30/ 14/ 17 1010.2S
SAINT JOSEPH      42     360/  4/  7 1010.8S
MICHIGAN CITY     40 44   20/ 12/ 16   N/A           2/ 4

$$
&&


USA.gov is the U.S. government's official web portal to all federal, state and local government web resources and services.